• In Czech Republic
  • List of Countries
  • For 7 days
  • Water Temperature
  • Satellite Maps
  • Weather Map
  • Weather Widgets
  • user-avatar
    Login

    Hourly Weather Canillo

    Today, 22 October, Sunday

    Time Temperature Precipitation Wind Pressure Humidity
    00:00 +4°C° 0 mm 2 mps 623 mmHg 92%
    01:00 +3°C° 0 mm 2 mps 623 mmHg 91%
    02:00 +3°C° 0 mm 2 mps 623 mmHg 90%
    03:00 +2°C° 0 mm 2 mps 622 mmHg 89%
    04:00 +2°C° 0 mm 2 mps 622 mmHg 88%
    05:00 +1°C° 0 mm 2 mps 622 mmHg 87%
    06:00 +1°C° 0 mm 2 mps 622 mmHg 85%
    07:00 +2°C° 0 mm 2 mps 622 mmHg 78%
    08:00 +3°C° 0 mm 3 mps 623 mmHg 71%
    09:00 +4°C° 0 mm 3 mps 624 mmHg 64%
    10:00 +5°C° 0 mm 3 mps 624 mmHg 59%
    11:00 +7°C° 0 mm 3 mps 625 mmHg 54%
    12:00 +9°C° 0 mm 3 mps 625 mmHg 47%
    13:00 +9°C° 0 mm 3 mps 625 mmHg 48%
    14:00 +8°C° 0 mm 3 mps 624 mmHg 50%
    15:00 +8°C° 0 mm 3 mps 624 mmHg 52%
    16:00 +5°C° 0 mm 3 mps 623 mmHg 60%
    17:00 +3°C° 0 mm 3 mps 623 mmHg 69%
    18:00 +2°C° 0 mm 2 mps 622 mmHg 77%
    19:00 +2°C° 0 mm 2 mps 622 mmHg 75%
    20:00 +2°C° 0 mm 2 mps 622 mmHg 74%
    21:00 0°C° 0 mm 3 mps 623 mmHg 72%
    22:00 +1°C° 0 mm 2 mps 623 mmHg 71%
    23:00 +1°C° 0 mm 2 mps 623 mmHg 71%

    Tomorrow, 23 October, Monday

    Time Temperature Precipitation Wind Pressure Humidity
    00:00 +1°C° 0 mm 2 mps 623 mmHg 70%
    01:00 +1°C° 0 mm 2 mps 622 mmHg 70%
    02:00 +1°C° 0 mm 2 mps 622 mmHg 71%
    03:00 -1°C° 0 mm 2 mps 622 mmHg 71%
    04:00 -1°C° 0 mm 2 mps 622 mmHg 71%
    05:00 -1°C° 0 mm 2 mps 622 mmHg 70%
    06:00 -1°C° 0 mm 2 mps 622 mmHg 70%
    07:00 +2°C° 0 mm 2 mps 623 mmHg 63%
    08:00 +5°C° 0 mm 2 mps 624 mmHg 57%
    09:00 +7°C° 0 mm 2 mps 625 mmHg 50%
    10:00 +8°C° 0 mm 2 mps 625 mmHg 47%
    11:00 +9°C° 0 mm 2 mps 626 mmHg 44%
    12:00 +12°C° 0 mm 2 mps 626 mmHg 42%
    13:00 +10°C° 0 mm 2 mps 626 mmHg 44%
    14:00 +10°C° 0 mm 2 mps 625 mmHg 46%
    15:00 +10°C° 0 mm 2 mps 625 mmHg 48%
    16:00 +8°C° 0 mm 2 mps 624 mmHg 56%
    17:00 +6°C° 0 mm 2 mps 624 mmHg 65%
    18:00 +4°C° 0 mm 2 mps 623 mmHg 73%
    19:00 +4°C° 0 mm 2 mps 623 mmHg 71%
    20:00 +3°C° 0 mm 2 mps 623 mmHg 69%
    21:00 +3°C° 0 mm 2 mps 624 mmHg 67%
    22:00 +4°C° 0 mm 2 mps 624 mmHg 67%
    23:00 +4°C° 0 mm 2 mps 624 mmHg 66%

    Day after tomorrow, 24 October, Tuesday

    Time Temperature Precipitation Wind Pressure Humidity
    00:00 +4°C° 0 mm 2 mps 624 mmHg 66%
    01:00 +4°C° 0 mm 2 mps 623 mmHg 66%
    02:00 +4°C° 0 mm 2 mps 623 mmHg 67%
    03:00 +4°C° 0 mm 2 mps 623 mmHg 67%
    04:00 +4°C° 0 mm 2 mps 623 mmHg 68%
    05:00 +4°C° 0 mm 2 mps 623 mmHg 69%
    06:00 +4°C° 0 mm 2 mps 623 mmHg 69%
    07:00 +8°C° 0 mm 1 mps 624 mmHg 62%
    08:00 +10°C° 0 mm 1 mps 625 mmHg 55%
    09:00 +13°C° 0 mm 1 mps 627 mmHg 48%
    10:00 +14°C° 0 mm 1 mps 627 mmHg 45%
    11:00 +16°C° 0 mm 1 mps 627 mmHg 42%
    12:00 +18°C° 0 mm 1 mps 627 mmHg 39%
    13:00 +18°C° 0 mm 1 mps 627 mmHg 41%
    14:00 +16°C° 0 mm 1 mps 626 mmHg 42%
    15:00 +16°C° 0 mm 1 mps 626 mmHg 44%
    16:00 +14°C° 0 mm 1 mps 625 mmHg 52%
    17:00 +11°C° 0 mm 1 mps 624 mmHg 60%
    18:00 +9°C° 0 mm 1 mps 624 mmHg 68%
    19:00 +9°C° 0 mm 1 mps 624 mmHg 66%
    20:00 +9°C° 0 mm 1 mps 624 mmHg 65%
    21:00 +9°C° 0 mm 1 mps 624 mmHg 63%
    22:00 +9°C° 0 mm 1 mps 624 mmHg 62%
    23:00 +8°C° 0 mm 1 mps 624 mmHg 60%

    25 October, Wednesday

    Time Temperature Precipitation Wind Pressure Humidity
    00:00 +8°C° 0 mm 1 mps 624 mmHg 58%
    01:00 +8°C° 0 mm 1 mps 624 mmHg 59%
    02:00 +8°C° 0 mm 1 mps 624 mmHg 59%
    03:00 +8°C° 0 mm 1 mps 624 mmHg 59%
    04:00 +8°C° 0 mm 1 mps 624 mmHg 59%
    05:00 +8°C° 0 mm 1 mps 624 mmHg 60%
    06:00 +8°C° 0 mm 1 mps 624 mmHg 60%
    07:00 +10°C° 0 mm 1 mps 625 mmHg 55%
    08:00 +13°C° 0 mm 1 mps 626 mmHg 50%
    09:00 +15°C° 0 mm 1 mps 627 mmHg 44%
    10:00 +16°C° 0 mm 1 mps 628 mmHg 42%
    11:00 +18°C° 0 mm 1 mps 628 mmHg 39%
    12:00 +18°C° 0 mm 2 mps 628 mmHg 37%
    13:00 +18°C° 0 mm 2 mps 628 mmHg 39%
    14:00 +17°C° 0 mm 2 mps 628 mmHg 41%
    15:00 +17°C° 0 mm 2 mps 627 mmHg 44%
    16:00 +15°C° 0 mm 1 mps 626 mmHg 51%
    17:00 +12°C° 0 mm 1 mps 626 mmHg 59%
    18:00 +10°C° 0 mm 1 mps 625 mmHg 67%
    19:00 +10°C° 0 mm 1 mps 625 mmHg 67%
    20:00 +9°C° 0 mm 1 mps 625 mmHg 66%
    21:00 +9°C° 0 mm 1 mps 625 mmHg 66%
    22:00 +9°C° 0 mm 1 mps 625 mmHg 65%
    23:00 +9°C° 0 mm 1 mps 625 mmHg 64%

    26 October, Thursday

    Time Temperature Precipitation Wind Pressure Humidity
    00:00 +9°C° 0 mm 1 mps 625 mmHg 63%
    01:00 +9°C° 0 mm 1 mps 625 mmHg 62%
    02:00 +9°C° 0 mm 1 mps 625 mmHg 60%
    03:00 +9°C° 0 mm 1 mps 625 mmHg 59%
    04:00 +9°C° 0 mm 1 mps 625 mmHg 58%
    05:00 +9°C° 0 mm 1 mps 625 mmHg 56%
    06:00 +8°C° 0 mm 1 mps 625 mmHg 55%
    07:00 +11°C° 0 mm 1 mps 626 mmHg 50%
    08:00 +14°C° 0 mm 1 mps 628 mmHg 45%
    09:00 +15°C° 0 mm 0 mps 629 mmHg 39%
    10:00 +18°C° 0 mm 1 mps 629 mmHg 36%
    11:00 +20°C° 0 mm 1 mps 629 mmHg 34%
    12:00 +21°C° 0 mm 1 mps 630 mmHg 31%
    13:00 +20°C° 0 mm 1 mps 629 mmHg 33%
    14:00 +20°C° 0 mm 1 mps 629 mmHg 35%
    15:00 +19°C° 0 mm 1 mps 629 mmHg 38%
    16:00 +16°C° 0 mm 1 mps 628 mmHg 45%
    17:00 +13°C° 0 mm 1 mps 627 mmHg 53%
    18:00 +11°C° 0 mm 1 mps 626 mmHg 60%
    19:00 +11°C° 0 mm 1 mps 626 mmHg 59%
    20:00 +11°C° 0 mm 1 mps 626 mmHg 58%
    21:00 +10°C° 0 mm 1 mps 626 mmHg 56%
    22:00 +10°C° 0 mm 1 mps 626 mmHg 55%
    23:00 +10°C° 0 mm 1 mps 626 mmHg 54%

    27 October, Friday

    Time Temperature Precipitation Wind Pressure Humidity
    00:00 +9°C° 0 mm 2 mps 626 mmHg 53%
    01:00 +8°C° 0 mm 2 mps 626 mmHg 53%
    02:00 +8°C° 0 mm 2 mps 626 mmHg 54%
    03:00 +8°C° 0 mm 2 mps 625 mmHg 55%
    04:00 +8°C° 0 mm 2 mps 625 mmHg 56%
    05:00 +7°C° 0 mm 2 mps 625 mmHg 57%
    06:00 +7°C° 0 mm 2 mps 625 mmHg 58%
    07:00 +9°C° 0 mm 2 mps 626 mmHg 52%
    08:00 +12°C° 0 mm 2 mps 627 mmHg 46%
    09:00 +14°C° 0 mm 2 mps 628 mmHg 40%
    10:00 +14°C° 0 mm 3 mps 628 mmHg 39%
    11:00 +16°C° 0 mm 3 mps 628 mmHg 38%
    12:00 +17°C° 0 mm 3 mps 628 mmHg 36%
    13:00 +16°C° 0 mm 3 mps 628 mmHg 38%
    14:00 +16°C° 0 mm 3 mps 628 mmHg 41%
    15:00 +14°C° 0 mm 3 mps 627 mmHg 43%
    16:00 +12°C° 0 mm 3 mps 626 mmHg 53%
    17:00 +10°C° 0 mm 3 mps 625 mmHg 62%
    18:00 +8°C° 0 mm 3 mps 625 mmHg 72%
    19:00 +7°C° 0 mm 3 mps 625 mmHg 74%
    20:00 +7°C° 0 mm 3 mps 625 mmHg 75%
    21:00 +7°C° 0 mm 3 mps 625 mmHg 77%
    22:00 +5°C° 0 mm 3 mps 624 mmHg 77%
    23:00 +5°C° 0 mm 3 mps 624 mmHg 77%
    Show more